KB1WCR Weather Reports


time (UTC)temp
F
wind
direction
speed
knots
gust
knots
rain 1hr
in
rain 24hr
in
rain mn
in
humidity
%
barometer
mb
20260904193609 74 2 0.9 0.9 0.07 0.01 0.01 82 1008.0
20260904193106 76 21 0.9 0.9 0.07 0.01 0.01 77 1008.1
20260904192605 77 25 1.7 1.7 0.00 0.00 0.00 71 1007.9
20260904192101 78 6 3.5 3.5 0.00 0.00 0.00 69 1008.1
20260904191557 79 74 1.7 1.7 0.00 0.00 0.00 68 1008.0
20260904191054 79 343 0.9 1.7 0.00 0.00 0.00 68 1008.2
20260904190549 79 275 0.9 1.7 0.00 0.00 0.00 67 1008.2
20260904190045 80 333 0.0 0.0 0.00 0.00 0.00 66 1008.2
20260904185536 80 302 1.7 1.7 0.00 0.00 0.00 65 1008.3
20260904185030 80 298 0.9 0.9 0.00 0.00 0.00 64 1008.1
20260904184525 81 55 2.6 3.5 0.00 0.00 0.00 63 1008.2
20260904184020 81 201 0.9 0.9 0.00 0.00 0.00 61 1008.0
20260904183515 80 275 1.7 2.6 0.00 0.00 0.00 64 1008.0
20260904183010 80 251 0.9 1.7 0.00 0.00 0.00 63 1007.9
20260904182505 81 303 0.9 1.7 0.00 0.00 0.00 64 1008.1
20260904182005 81 24 2.6 2.6 0.00 0.00 0.00 63 1008.2
20260904181501 82 308 0.9 1.7 0.00 0.00 0.00 64 1008.0
20260904180956 80 316 0.0 0.0 0.00 0.00 0.00 71 1008.1
20260904180456 80 291 0.0 0.0 0.00 0.00 0.00 68 1008.4
20260904175950 78 319 2.6 2.6 0.00 0.00 0.00 68 1008.3
20260904175450 78 276 1.7 1.7 0.00 0.00 0.00 70 1008.3
20260904174943 79 305 2.6 2.6 0.00 0.00 0.00 69 1008.2
20260904174438 80 276 4.3 6.1 0.00 0.00 0.00 68 1008.1
20260904173936 80 336 1.7 2.6 0.00 0.00 0.00 69 1008.3
20260904173435 79 18 1.7 2.6 0.00 0.00 0.00 70 1008.2
20260904172931 79 273 2.6 3.5 0.00 0.00 0.00 68 1008.3
20260904172426 80 276 1.7 2.6 0.00 0.00 0.00 67 1008.3
20260904171915 80 265 2.6 3.5 0.00 0.00 0.00 67 1008.4
20260904171411 80 29 4.3 7.0 0.00 0.00 0.00 68 1008.4
20260904170907 79 2 1.7 1.7 0.00 0.00 0.00 71 1008.2
20260904170402 78 314 0.9 1.7 0.00 0.00 0.00 72 1008.4
20260904165857 80 312 1.7 2.6 0.00 0.00 0.00 69 1008.5
20260904165355 78 266 0.9 1.7 0.00 0.00 0.00 71 1008.4
20260904164850 78 33 1.7 1.7 0.00 0.00 0.00 73 1008.5
20260904164349 77 1 0.9 0.9 0.00 0.00 0.00 73 1008.7
20260904163846 79 344 1.7 3.5 0.00 0.00 0.00 70 1008.8
20260904163345 78 20 1.7 1.7 0.00 0.00 0.00 72 1008.8
20260904162845 77 54 1.7 2.6 0.00 0.00 0.00 72 1008.9
20260904162341 78 42 2.6 3.5 0.00 0.00 0.00 71 1008.8
20260904161836 79 57 4.3 5.2 0.00 0.00 0.00 70 1008.9
20260904161331 78 292 2.6 3.5 0.00 0.00 0.00 71 1009.0
20260904160827 79 301 3.5 5.2 0.00 0.00 0.00 69 1009.0
20260904160327 80 260 1.7 1.7 0.00 0.00 0.00 72 1008.9
20260904155822 78 339 0.9 0.9 0.00 0.00 0.00 75 1009.3
20260904155316 77 296 1.7 2.6 0.00 0.00 0.00 75 1009.2
20260904154815 79 287 2.6 2.6 0.00 0.00 0.00 73 1009.1
20260904154310 78 335 1.7 2.6 0.00 0.00 0.00 78 1009.2
20260904153806 79 290 2.6 2.6 0.00 0.00 0.00 73 1009.2
20260904153301 77 20 0.9 0.9 0.00 0.00 0.00 77 1009.3
20260904152757 77 3 1.7 1.7 0.00 0.00 0.00 76 1009.3
20260904152252 78 277 0.9 0.9 0.00 0.00 0.00 79 1009.1
20260904151747 77 289 1.7 1.7 0.00 0.00 0.00 80 1009.5
20260904151246 76 258 0.0 0.0 0.00 0.00 0.00 82 1009.5
20260904150742 75 269 0.9 0.9 0.00 0.00 0.00 84 1009.5
20260904150237 76 271 1.7 1.7 0.00 0.00 0.00 83 1009.6
20260904145735 76 266 0.9 1.7 0.00 0.00 0.00 83 1009.4
20260904145231 75 224 1.7 1.7 0.00 0.00 0.00 83 1009.4
20260904144726 76 251 0.9 1.7 0.00 0.00 0.00 85 1009.5
20260904144222 75 305 0.0 0.0 0.00 0.00 0.00 86 1009.6
20260904143717 75 272 0.0 0.0 0.00 0.00 0.00 86 1009.5
20260904143214 74 291 0.0 0.0 0.00 0.00 0.00 87 1009.6
20260904142710 73 232 0.9 0.9 0.00 0.00 0.00 88 1009.7
20260904142206 73 252 0.9 0.9 0.00 0.00 0.00 89 1009.8
20260904141705 72 283 0.0 0.0 0.00 0.00 0.00 89 1009.9
20260904141201 73 222 0.9 0.9 0.00 0.00 0.00 91 1009.9
20260904140657 71 259 0.0 0.9 0.00 0.00 0.00 90 1009.7
20260904140151 72 317 1.7 1.7 0.00 0.00 0.00 90 1009.6
20260904135650 71 255 0.0 0.0 0.00 0.00 0.00 92 1009.9
20260904135146 70 293 0.0 0.9 0.00 0.00 0.00 94 1009.8
20260904134642 70 246 0.9 1.7 0.00 0.00 0.00 95 1009.8
20260904134141 69 20 0.9 0.9 0.00 0.00 0.00 96 1009.6
20260904133636 68 257 0.9 0.9 0.00 0.00 0.00 98 1009.8
20260904133132 68 246 0.9 0.9 0.00 0.00 0.00 99 1009.9
20260904132631 68 254 0.9 0.9 0.00 0.00 0.00 98 1009.7
20260904132126 67 249 0.9 0.9 0.00 0.00 0.00 99 1009.8
20260904131626 66 308 0.0 0.9 0.00 0.00 0.00 99 1010.0
20260904131122 66 277 0.0 0.0 0.00 0.00 0.00 99 1009.6
20260904130621 66 281 0.0 0.0 0.00 0.00 0.00 99 1009.7
20260904130116 65 303 0.9 0.9 0.00 0.00 0.00 99 1009.9
20260904125613 65 357 0.0 0.0 0.00 0.00 0.00 99 1009.8
20260904125112 65 277 0.9 0.9 0.00 0.00 0.00 99 1009.8
20260904124608 64 320 0.0 0.0 0.00 0.00 0.00 99 1009.8
20260904124103 64 307 0.9 0.9 0.00 0.00 0.00 99 1009.9
20260904123603 64 305 0.0 0.0 0.00 0.00 0.00 99 1009.8
20260904123059 65 294 0.0 0.0 0.00 0.00 0.00 99 1009.9
20260904122554 64 287 0.0 0.0 0.00 0.00 0.00 99 1009.8
20260904122049 64 287 0.0 0.0 0.00 0.00 0.00 99 1010.1
20260904121544 64 283 0.0 0.0 0.00 0.00 0.00 99 1009.8
20260904121040 64 263 0.9 0.9 0.00 0.00 0.00 99 1009.9
20260904120536 64 286 0.0 0.0 0.00 0.00 0.00 99 1009.9
20260904120032 64 296 0.0 0.0 0.00 0.00 0.00 99 1009.9
20260904115526 64 288 0.0 0.0 0.00 0.00 0.00 99 1009.8
20260904115020 64 296 0.0 0.0 0.00 0.00 0.00 99 1009.9
20260904114515 64 296 0.0 0.0 0.00 0.00 0.00 99 1009.9
20260904114011 64 294 0.0 0.0 0.00 0.00 0.00 99 1009.9
20260904113510 63 299 0.0 0.0 0.00 0.00 0.00 99 1010.0
20260904113009 63 294 0.0 0.0 0.00 0.00 0.00 99 1009.7
20260904112505 63 276 0.0 0.0 0.00 0.00 0.00 99 1009.7
20260904111955 63 297 0.0 0.0 0.00 0.00 0.00 99 1009.7
20260904111450 63 282 0.0 0.0 0.00 0.00 0.00 99 1009.8
20260904110941 63 300 0.0 0.0 0.00 0.00 0.00 99 1009.7
20260904110439 63 286 0.0 0.0 0.00 0.00 0.00 99 1009.9
20260904105935 63 308 0.0 0.0 0.00 0.00 0.00 99 1009.6
20260904105430 63 313 0.0 0.0 0.00 0.00 0.00 99 1009.8
20260904104924 63 304 0.0 0.9 0.00 0.00 0.00 99 1009.8
20260904104424 63 301 0.0 0.0 0.00 0.00 0.00 99 1009.7
20260904103921 63 299 0.0 0.0 0.00 0.00 0.00 99 1009.8
20260904103417 63 304 0.0 0.0 0.00 0.00 0.00 99 1009.4
20260904102913 63 288 0.0 0.0 0.00 0.00 0.00 99 1009.5
20260904102408 63 350 0.9 1.7 0.00 0.00 0.00 99 1009.6
20260904101904 63 306 0.0 0.0 0.00 0.00 0.00 99 1009.5
20260904101400 63 259 0.9 0.9 0.00 0.00 0.00 99 1009.5
20260904100855 63 304 0.0 0.9 0.00 0.00 0.00 99 1009.5
20260904100351 63 291 0.0 0.0 0.00 0.00 0.00 99 1009.6
20260904095845 63 302 0.0 0.0 0.00 0.00 0.00 99 1009.4
20260904095340 63 296 0.0 0.0 0.00 0.00 0.00 99 1009.5
20260904094835 63 294 0.0 0.0 0.00 0.00 0.00 99 1009.4
20260904094330 63 295 0.0 0.0 0.00 0.00 0.00 99 1009.3
20260904093826 63 291 0.0 0.0 0.00 0.00 0.00 99 1009.5
20260904093321 63 275 0.9 1.7 0.00 0.00 0.00 99 1009.5
20260904092816 63 319 0.0 0.0 0.00 0.00 0.00 99 1009.4
20260904092313 63 303 0.9 0.9 0.00 0.00 0.00 99 1009.3
20260904091808 63 306 0.0 0.0 0.00 0.00 0.00 99 1009.4
20260904091303 63 305 0.0 0.0 0.00 0.00 0.00 99 1009.4
20260904090758 63 298 0.0 0.0 0.00 0.00 0.00 99 1009.2
20260904090254 63 297 0.0 0.0 0.00 0.00 0.00 99 1009.5
20260904085749 63 301 0.0 0.0 0.00 0.00 0.00 99 1009.3
20260904085244 63 293 0.0 0.0 0.00 0.00 0.00 99 1009.4
20260904084739 63 302 0.0 0.0 0.00 0.00 0.00 99 1009.5
20260904084234 63 283 0.0 0.0 0.00 0.00 0.00 99 1009.3
20260904083730 63 296 0.0 0.0 0.00 0.00 0.00 99 1009.3
20260904083226 63 296 0.0 0.0 0.00 0.00 0.00 99 1009.3
20260904082721 63 304 0.0 0.0 0.00 0.00 0.00 99 1009.4
20260904082216 63 304 0.0 0.0 0.00 0.00 0.00 99 1009.4
20260904081712 63 299 0.0 0.0 0.00 0.00 0.00 99 1009.4
20260904081207 63 299 0.0 0.0 0.00 0.00 0.00 99 1009.4
20260904080702 63 299 0.0 0.0 0.00 0.00 0.00 99 1009.5
20260904080152 63 299 0.0 0.0 0.00 0.00 0.00 99 1009.5
20260904075649 63 306 0.0 0.0 0.00 0.00 0.00 99 1009.6
20260904075149 63 315 0.0 0.0 0.00 0.00 0.00 99 1009.7
20260904074643 63 311 0.0 0.0 0.00 0.00 0.00 99 1009.6
20260904074137 63 303 0.0 0.0 0.00 0.00 0.00 99 1009.7
20260904073632 63 303 0.0 0.0 0.00 0.00 0.00 99 1009.7
20260904073129 63 306 0.0 0.0 0.00 0.00 0.00 99 1009.8
20260904072625 63 298 0.0 0.0 0.00 0.00 0.00 99 1009.7
20260904072119 63 306 0.0 0.0 0.00 0.00 0.00 99 1009.8
20260904071615 62 307 0.0 0.0 0.00 0.00 0.00 99 1010.1
20260904071109 62 307 0.0 0.0 0.00 0.00 0.00 99 1009.7
20260904070609 63 310 0.0 0.0 0.00 0.00 0.00 99 1009.8
20260904065552 63 313 0.0 0.0 0.00 0.00 0.00 99 1009.9
20260904065049 63 306 0.0 0.0 0.00 0.00 0.00 99 1009.9
20260904064545 62 302 0.0 0.0 0.00 0.00 0.00 99 1010.1
20260904064044 62 292 0.0 0.0 0.00 0.00 0.00 99 1009.9
20260904063541 62 298 0.0 0.0 0.00 0.00 0.00 99 1010.1
20260904063036 62 299 0.0 0.0 0.00 0.00 0.00 99 1010.1
20260904062532 62 284 0.0 0.0 0.00 0.00 0.00 99 1010.4
20260904062027 62 300 0.0 0.0 0.00 0.00 0.00 99 1010.2
20260904061523 62 300 0.0 0.0 0.00 0.00 0.00 99 1010.4
20260904061019 62 302 0.0 0.0 0.00 0.00 0.00 99 1010.6
20260904060515 62 308 0.0 0.0 0.00 0.00 0.00 99 1010.6
20260904060011 62 302 0.0 0.0 0.00 0.00 0.00 99 1010.5
20260904055506 62 301 0.0 0.0 0.00 0.00 0.00 99 1010.4
20260904055002 62 304 0.0 0.0 0.00 0.00 0.00 99 1010.9
20260904054457 61 302 0.0 0.0 0.00 0.00 0.00 99 1010.9
20260904053953 61 320 0.0 0.0 0.00 0.00 0.00 99 1010.8
20260904053452 61 298 0.0 0.0 0.00 0.00 0.00 99 1011.1
20260904052948 61 308 0.0 0.0 0.00 0.00 0.00 99 1011.1
20260904052444 61 308 0.0 0.0 0.00 0.00 0.00 99 1011.3
20260904051940 61 311 0.0 0.0 0.00 0.00 0.00 99 1011.2
20260904051437 61 305 0.0 0.0 0.00 0.00 0.00 99 1011.3
20260904050935 61 305 0.0 0.0 0.00 0.00 0.00 99 1011.5
20260904050432 61 305 0.0 0.0 0.00 0.00 0.00 99 1011.3
20260904045932 61 311 0.0 0.0 0.00 0.00 0.00 99 1011.0
20260904045426 61 311 0.0 0.0 0.00 0.00 0.00 99 1011.2
20260904044921 61 311 0.0 0.0 0.00 0.00 0.00 99 1011.3
20260904044418 61 303 0.0 0.0 0.00 0.00 0.00 99 1011.2
20260904043913 61 303 0.0 0.0 0.00 0.00 0.00 99 1011.3
20260904043410 61 301 0.0 0.0 0.00 0.00 0.00 99 1011.4
20260904042904 61 313 0.0 0.0 0.00 0.00 0.00 99 1011.2
20260904042400 61 310 0.0 0.0 0.00 0.00 0.00 99 1011.3
20260904041856 61 301 0.0 0.0 0.00 0.00 0.00 99 1011.4
20260904041352 61 316 0.0 0.0 0.00 0.00 0.00 99 1011.4
20260904040848 61 320 0.0 0.0 0.00 0.00 0.00 99 1011.8
20260904040343 61 303 0.0 0.0 0.00 0.00 0.00 99 1011.6
20260904035839 61 307 0.0 0.0 0.00 0.07 0.07 99 1011.7
20260904035335 61 297 0.0 0.0 0.00 0.07 0.07 99 1011.7
20260904034833 61 297 0.0 0.0 0.00 0.07 0.07 99 1011.7
20260904034329 62 296 0.0 0.0 0.00 0.07 0.07 99 1011.8
20260904033825 62 319 0.0 0.0 0.00 0.07 0.07 99 1011.7
20260904033321 62 296 0.0 0.0 0.00 0.07 0.07 99 1011.7
20260904032817 61 296 0.0 0.0 0.00 0.07 0.07 99 1011.6
20260904032317 62 296 0.0 0.0 0.00 0.07 0.07 99 1011.7
20260904031811 62 296 0.0 0.0 0.00 0.07 0.07 99 1011.6
20260904031307 62 296 0.0 0.0 0.00 0.07 0.07 99 1011.4
20260904030803 62 323 0.0 0.0 0.00 0.07 0.07 99 1011.5
20260904030258 62 320 0.0 0.0 0.00 0.07 0.07 99 1011.6
20260904025754 63 305 0.0 0.0 0.00 0.07 0.07 99 1011.8
20260904025249 63 1 0.0 0.0 0.00 0.07 0.07 99 1012.0
20260904024743 63 302 0.0 0.0 0.00 0.07 0.07 99 1011.9
20260904024238 64 288 0.0 0.0 0.00 0.07 0.07 99 1012.0
20260904023730 64 307 0.0 0.0 0.00 0.07 0.07 99 1011.9
20260904023226 64 288 0.0 0.0 0.00 0.07 0.07 99 1012.3
20260904022725 64 292 0.0 0.0 0.00 0.07 0.07 99 1012.2
20260904022222 64 301 0.0 0.0 0.00 0.07 0.07 99 1012.2
20260904021718 64 274 0.0 0.0 0.00 0.07 0.07 99 1012.4
20260904021212 64 306 0.0 0.0 0.00 0.07 0.07 99 1012.3
20260904020708 64 303 0.0 0.0 0.00 0.07 0.07 99 1012.4
20260904020208 64 305 0.0 0.0 0.00 0.07 0.07 99 1012.4
20260904015706 64 296 0.0 0.0 0.00 0.07 0.07 99 1012.6
20260904015201 64 296 0.0 0.0 0.00 0.07 0.07 99 1012.5
20260904014700 64 312 0.0 0.0 0.00 0.07 0.07 99 1012.5
20260904014155 64 303 0.0 0.0 0.00 0.07 0.07 99 1012.6
20260904013652 64 303 0.0 0.0 0.00 0.07 0.07 99 1012.5
20260904013147 64 303 0.0 0.0 0.00 0.07 0.07 99 1012.4
20260904012643 64 296 0.0 0.0 0.00 0.07 0.07 99 1012.6
20260904012142 64 296 0.0 0.0 0.00 0.07 0.07 99 1012.5
20260904011641 64 303 0.0 0.0 0.00 0.07 0.07 99 1012.6
20260904011137 64 319 0.0 0.0 0.00 0.07 0.07 99 1012.3
20260904010632 64 315 0.0 0.0 0.00 0.07 0.07 99 1012.6
20260904010129 64 286 0.0 0.0 0.00 0.07 0.07 99 1012.5
20260904005624 64 304 0.0 0.0 0.00 0.07 0.07 99 1012.3
20260904005119 65 296 0.0 0.0 0.00 0.07 0.07 99 1012.7
20260904004615 64 302 0.0 0.0 0.00 0.07 0.07 99 1012.6
20260904004114 65 292 0.0 0.0 0.00 0.07 0.07 99 1012.2
20260904003611 64 294 0.0 0.0 0.00 0.07 0.07 99 1012.3
20260904003106 65 279 0.0 0.0 0.00 0.07 0.07 99 1012.2
20260904002602 64 300 0.0 0.0 0.00 0.07 0.07 99 1012.3
20260904002056 64 309 0.0 0.0 0.00 0.07 0.07 99 1012.3
20260904001552 65 320 0.0 0.0 0.00 0.07 0.07 99 1012.2
20260904001050 65 322 0.0 0.0 0.00 0.07 0.07 99 1012.3
20260904000545 65 293 0.0 0.0 0.00 0.07 0.07 99 1012.4
20260904000036 65 292 0.0 0.0 0.00 0.07 0.07 99 1012.1
20260903235536 65 324 0.0 0.0 0.00 0.07 0.07 99 1012.1
20260903235032 65 315 0.0 0.0 0.00 0.07 0.07 99 1012.2
20260903234527 65 299 0.0 0.0 0.00 0.07 0.07 99 1012.1
20260903234022 65 307 0.0 0.0 0.00 0.07 0.07 99 1012.2
20260903233518 65 299 0.0 0.0 0.00 0.07 0.07 99 1012.2
20260903233014 65 301 0.0 0.0 0.00 0.07 0.07 99 1012.4
20260903232509 65 304 0.0 0.0 0.00 0.07 0.07 99 1012.2
20260903232009 65 308 0.0 0.0 0.00 0.07 0.07 99 1012.2
20260903231503 65 298 0.0 0.0 0.00 0.07 0.07 99 1012.5
20260903230957 65 298 0.0 0.0 0.00 0.07 0.07 99 1012.5
20260903230454 65 298 0.0 0.0 0.00 0.07 0.07 99 1012.4
20260903225950 66 283 0.0 0.0 0.00 0.07 0.07 99 1012.5
20260903225445 66 325 0.0 0.0 0.00 0.07 0.07 99 1012.3
20260903224942 66 324 0.0 0.0 0.00 0.07 0.07 99 1012.5
20260903224437 66 296 0.0 0.0 0.00 0.07 0.07 98 1012.5
20260903223933 66 306 0.0 0.0 0.00 0.07 0.07 99 1012.5
20260903223432 66 315 0.0 0.0 0.00 0.07 0.07 98 1012.3
20260903222931 66 309 0.0 0.0 0.00 0.07 0.07 98 1012.5
20260903222427 66 310 0.0 0.0 0.00 0.07 0.07 97 1012.3
20260903221921 66 314 0.0 0.0 0.00 0.07 0.07 97 1012.6
20260903221420 66 308 0.0 0.0 0.00 0.07 0.07 97 1012.6
20260903220918 66 308 0.0 0.0 0.00 0.07 0.07 96 1012.5
20260903220412 66 300 0.0 0.0 0.00 0.07 0.07 97 1012.5
20260903215909 66 304 0.0 0.0 0.00 0.07 0.07 97 1012.4
20260903215407 66 308 0.0 0.0 0.00 0.07 0.07 97 1012.5
20260903214905 66 298 0.0 0.0 0.00 0.07 0.07 98 1012.5
20260903214401 66 310 0.0 0.0 0.00 0.07 0.07 96 1012.5
20260903213901 66 301 0.0 0.0 0.00 0.07 0.07 96 1012.3
20260903213356 66 314 0.0 0.0 0.00 0.07 0.07 96 1012.5
20260903212852 66 289 0.0 0.0 0.00 0.07 0.07 96 1012.4
20260903212348 66 302 0.0 0.0 0.00 0.07 0.07 96 1012.6
20260903211847 66 298 0.0 0.0 0.00 0.07 0.07 96 1012.5
20260903211343 66 299 0.0 0.0 0.00 0.07 0.07 96 1012.5
20260903210839 66 294 0.0 0.0 0.00 0.07 0.07 96 1012.6
20260903210333 66 288 0.0 0.0 0.00 0.07 0.07 97 1012.6
20260903205833 66 292 0.0 0.0 0.00 0.07 0.07 97 1012.6
20260903205333 66 304 0.0 0.0 0.00 0.07 0.07 97 1012.4
20260903204828 66 286 0.0 0.0 0.00 0.07 0.07 98 1012.7
20260903204324 66 319 0.0 0.0 0.00 0.07 0.07 97 1012.6
20260903203819 66 91 0.0 0.9 0.00 0.07 0.07 97 1012.7
20260903203315 66 295 0.0 0.0 0.00 0.07 0.07 98 1012.6
20260903202814 66 313 0.0 0.0 0.00 0.07 0.07 98 1012.8
20260903202311 66 332 0.0 0.0 0.00 0.07 0.07 98 1012.6
20260903201810 65 301 0.0 0.0 0.00 0.07 0.07 98 1012.7
20260903201305 66 272 0.0 0.9 0.00 0.07 0.07 98 1012.7
20260903200804 66 88 0.9 1.7 0.00 0.07 0.07 97 1012.7
20260903200259 66 291 0.0 0.0 0.00 0.07 0.07 98 1012.7
20260903195754 66 279 0.0 0.0 0.00 0.07 0.07 97 1012.7
20260903195250 66 268 0.0 0.0 0.00 0.07 0.07 98 1012.9
20260903194745 66 344 0.0 0.0 0.00 0.07 0.07 97 1013.2
20260903194241 66 204 0.9 0.9 0.00 0.07 0.07 97 1012.9
20260903193736 66 268 0.9 0.9 0.00 0.07 0.07 97 1012.8